User: anonymous   Login
Location: Albany
(35.0000°S, 118.0000°E)
Time: 13:48:55
(UTC-05:00)
Language:

ADEOS Rocket - Orbit

View from above orbital plane
View from above orbital plane
View from above satellite
View from above satellite

Ground track
Ground track

The orbit data is extracted from the following two-line orbital elements,

1 24279U 96046C   18051.82549446 +.00000012 +00000-0 +60359-4 0  9996
2 24279 098.7712 330.2735 0300466 015.4397 049.0502 13.47104020057443
Epoch (UTC): 20 February 2018 19:48:42
Eccentricity: 0.0300466
inclination: 98.7712°
perigee height: 859 km
apogee height: 1307 km
right ascension of ascending node: 330.2735°
argument of perigee: 15.4397°
revolutions per day: 13.47104020
mean anomaly at epoch: 49.0502°
orbit number at epoch: 5744

The dashed part of the orbit path shows where the satellite is in the earth's shadow,  

DLR